Home   Weather   Taiohae   Past weeks

Flag for French Polynesia Past Weather in Taiohae, Marquesas Islands, French Polynesia — Yesterday and Last 2 Weeks

Now
82 °F

Passing clouds.


Feels Like: 86 °F
Forecast: 76 / 82 °F
Wind: 15 mph from East

Location: Atuona

Current Time: Aug 31, 2016 at 2:14:09 PM

Latest Report: Aug 31, 2016 at 1:30 PM


Visibility: 31 mi

Pressure: 29.87 "Hg

Humidity: 64%

Dew Point: 69 °F

Location of TaiohaeLocation

Past Weather in Taiohae — Graph

°F

Taiohae Temperature Yesterday

Maximum temperature yesterday: 85 °F (at 12:30 PM)
Minimum temperature yesterday: 74 °F (at 8:30 PM)
Average temperature yesterday: 78 °F

High & Low Weather Summary for the Past Weeks

 TemperatureHumidityPressure
High87 °F (Aug 17, 9:30 AM)90% (Aug 19, 8:30 PM)30.03 "Hg (Aug 19, 8:30 PM)
Low71 °F (Aug 17, 12:30 AM)49% (Aug 22, 12:30 PM)29.77 "Hg (Aug 17, 3:30 AM)
Average78 °F75%29.91 "Hg
* Reported Aug 16 12:30 PM — Aug 31 12:30 PM, Taiohae, Weather by CustomWeather, © 2016

Note: Actual official high and low records may vary slightly from our data, if they occured in-between our weather recording intervals... More about our weather records

Advertising

Taiohae Weather History for the Previous 24 Hours

Scroll right to see more
 ConditionsComfort  
Time TempWeatherWind HumidityBarometerVisibility
12:30 PM
Wed, Aug 31
85 °FPassing clouds.9 mph61%29.90 "Hg31 mi
11:30 AM85 °FPassing clouds.3 mph54%29.93 "Hg31 mi
10:30 AM85 °FPassing clouds.3 mph54%29.95 "Hg31 mi
9:30 AM84 °FPassing clouds.7 mph56%29.97 "Hg31 mi
8:30 AM87 °FPassing clouds.3 mph62%29.97 "Hg31 mi
7:30 AM81 °FPassing clouds.3 mph69%29.96 "Hg31 mi
6:30 AM75 °FPassing clouds.1 mph76%29.94 "Hg31 mi
5:30 AM73 °FPartly sunny.2 mph81%29.92 "Hg31 mi
4:30 AM72 °FMild.1 mph82%29.90 "HgN/A
3:30 AM72 °FMild.1 mph83%29.89 "HgN/A
2:30 AM73 °FMild.3 mph82%29.89 "HgN/A
1:30 AM73 °FMild.2 mph84%29.91 "HgN/A
12:30 AM74 °FMild.1 mph83%29.93 "HgN/A
11:30 PM
Tue, Aug 30
74 °FMild.3 mph82%29.95 "HgN/A
10:30 PM75 °FMild.1 mph81%29.97 "HgN/A
9:30 PM74 °FMild.No wind82%29.97 "HgN/A
8:30 PM74 °FMild.No wind81%29.96 "HgN/A
7:30 PM74 °FMild.2 mph80%29.95 "HgN/A
6:30 PM76 °FMild.No wind78%29.92 "HgN/A
5:30 PM79 °FWarm.3 mph70%29.90 "HgN/A
4:30 PM80 °FPassing clouds.16 mph67%29.87 "Hg25 mi
3:30 PM82 °FPassing clouds.15 mph64%29.87 "Hg25 mi
2:30 PM82 °FPassing clouds.16 mph65%29.88 "Hg25 mi
Weather by CustomWeather, © 2016

See weather overviewHow to use our weather pages